Sarasota, FL

1:23 AM EDT on April 27, 2017 (GMT -0400)
Sarasota-bradenton

Weather History for KSRQ - July, 2013

Change the Weather History Date:

Monday, July 1, 2013

  Actual Average Record
Temperature  
Mean Temperature 77 °F 82 °F  
Max Temperature 80 °F 89 °F 96 °F (1998)
Min Temperature 74 °F 75 °F 61 °F (1948)
Degree Days  
Heating Degree Days 0 0  
Month to date heating degree days 0 0  
Since 1 June heating degree days 0 0  
Since 1 July heating degree days 0 0  
Cooling Degree Days 12 17  
Month to date cooling degree days 12 17  
Year to date cooling degree days 1393 1240  
Since 1 June cooling degree days 525 489  
Growing Degree Days 26 (Base 50)    
Moisture  
Dew Point 73 °F    
Average Humidity 90    
Maximum Humidity 94    
Minimum Humidity 85    
Precipitation  
Precipitation 1.62 in 0.28 in 2.56 in (2001)
Month to date precipitation 1.62 0.28  
Year to date precipitation 18.50 21.49  
Sea Level Pressure  
Sea Level Pressure 29.93 in    
Wind  
Wind Speed 11 mph (SSE)    
Max Wind Speed 24 mph    
Max Gust Speed 30 mph    
Visibility 8 miles    
Events Rain    
T = Trace of Precipitation, MM = Missing Value Source: NWS Daily Summary

Daily Weather History Graph

Daily Weather History Graph

Search for Another Location

Airport or City:

Trip Planner

Search our weather history database for the weather conditions in past years. The results will help you decide how hot, cold, wet, or windy it might be!

Date:

Astronomy

Jul. 01, 2013 Rise Set
Actual Time 6:38 AM EDT 8:29 PM EDT
Civil Twilight 6:12 AM EDT 8:55 PM EDT
Nautical Twilight 5:40 AM EDT 9:27 PM EDT
Astronomical Twilight 5:06 AM EDT 10:01 PM EDT
Moon 1:48 AM EDT (7/1) 3:00 PM EDT (7/1)
Length of Visible Light 14h 43m
Length of Day
13h 50m
Waning Crescent, 35% of the Moon is Illuminated
Jul 1
Waning Crescent
Jul 8
New
Jul 15
First Quarter
Jul 22
Full
Jul 29
Last Quarter

Hourly Weather History & Observations

Time (EDT) Temp. Heat Index Dew Point Humidity Pressure Visibility Wind Dir Wind Speed Gust Speed Precip Events Conditions
12:53 AM 75.0 °F - 72.0 °F 90% 29.86 in 10.0 mi SSE 10.4 mph - N/A   Clear
1:53 AM 78.1 °F - 73.9 °F 87% 29.88 in 10.0 mi SE 12.7 mph - 0.02 in   Overcast
2:22 AM 77.0 °F - 73.4 °F 89% 29.87 in 10.0 mi SSE 15.0 mph - 0.00 in Rain Light Rain
2:53 AM 75.9 °F - 73.0 °F 91% 29.87 in 10.0 mi South 11.5 mph - 0.00 in   Overcast
3:31 AM 75.2 °F - 73.4 °F 94% 29.87 in 1.8 mi SSE 6.9 mph - 0.16 in Rain Heavy Rain
3:39 AM 75.2 °F - 73.4 °F 94% 29.86 in 2.5 mi SSE 6.9 mph - 0.28 in Rain Heavy Rain
3:46 AM 75.2 °F - 73.4 °F 94% 29.86 in 9.0 mi SSE 12.7 mph - 0.30 in Rain Light Rain
3:53 AM 75.9 °F - 73.0 °F 91% 29.86 in 10.0 mi SSE 8.1 mph - 0.30 in   Scattered Clouds
4:53 AM 75.9 °F - 73.9 °F 94% 29.86 in 10.0 mi ESE 8.1 mph - N/A   Partly Cloudy
5:15 AM 75.2 °F - 73.4 °F 94% 29.86 in 10.0 mi ESE 6.9 mph - N/A   Mostly Cloudy
5:36 AM 75.2 °F - 73.4 °F 94% 29.86 in 10.0 mi SE 6.9 mph - N/A   Mostly Cloudy
5:53 AM 75.9 °F - 73.9 °F 94% 29.87 in 10.0 mi SE 6.9 mph - N/A   Partly Cloudy
6:53 AM 77.0 °F - 73.9 °F 90% 29.88 in 10.0 mi SSE 13.8 mph - N/A   Scattered Clouds
7:53 AM 77.0 °F - 73.0 °F 88% 29.90 in 10.0 mi SSE 12.7 mph 24.2 mph N/A   Scattered Clouds
8:53 AM 77.0 °F - 73.0 °F 88% 29.91 in 10.0 mi South 12.7 mph - 0.00 in Rain Light Rain
9:53 AM 77.0 °F - 73.9 °F 90% 29.92 in 10.0 mi South 9.2 mph - 0.03 in   Scattered Clouds
10:53 AM 78.1 °F - 72.0 °F 81% 29.92 in 10.0 mi SSW 16.1 mph 25.3 mph 0.01 in Rain Light Rain
11:53 AM 80.1 °F 84.2 °F 73.0 °F 79% 29.95 in 10.0 mi SSW 13.8 mph - 0.04 in   Scattered Clouds
12:53 PM 78.1 °F - 73.9 °F 87% 29.95 in 10.0 mi SSW 15.0 mph - 0.09 in Rain Light Rain
1:53 PM 78.1 °F - 73.0 °F 84% 29.95 in 7.0 mi SSW 13.8 mph - 0.03 in Rain Light Rain
2:01 PM 78.8 °F - 73.4 °F 83% 29.95 in 8.0 mi South 17.3 mph 24.2 mph 0.01 in Rain Light Rain
2:09 PM 78.8 °F - 73.4 °F 83% 29.95 in 8.0 mi SSW 16.1 mph 24.2 mph 0.02 in Rain Light Rain
2:53 PM 79.0 °F - 73.9 °F 84% 29.94 in 10.0 mi South 10.4 mph - 0.04 in Rain Light Rain
3:39 PM 77.0 °F - 73.4 °F 89% 29.94 in 4.0 mi SSW 13.8 mph - 0.05 in Rain Rain
3:48 PM 77.0 °F - 73.4 °F 89% 29.94 in 5.0 mi South 12.7 mph - 0.06 in Rain Light Rain
3:53 PM 78.1 °F - 73.9 °F 87% 29.94 in 10.0 mi South 11.5 mph - 0.06 in Rain Light Rain
4:53 PM 78.1 °F - 73.0 °F 84% 29.95 in 9.0 mi South 10.4 mph - 0.04 in Rain Light Rain
5:33 PM 75.2 °F - 73.4 °F 94% 29.95 in 5.0 mi SSE 16.1 mph - 0.09 in Rain Rain
5:42 PM 75.2 °F - 73.4 °F 94% 29.95 in 6.0 mi SSE 12.7 mph - 0.11 in Rain Light Rain
5:53 PM 75.9 °F - 73.0 °F 91% 29.96 in 8.0 mi SSE 9.2 mph - 0.12 in Rain Light Rain
6:17 PM 75.2 °F - 73.4 °F 94% 29.96 in 1.8 mi SSW 11.5 mph - 0.09 in Rain Rain
6:30 PM 75.2 °F - 71.6 °F 89% 29.96 in 3.0 mi SSW 9.2 mph - 0.20 in Rain Rain
6:53 PM 75.9 °F - 72.0 °F 87% 29.96 in 5.0 mi WSW 13.8 mph - 0.23 in Rain Light Rain
7:53 PM 75.9 °F - 72.0 °F 87% 29.96 in 10.0 mi Calm Calm - 0.06 in Rain Light Rain
8:33 PM 75.2 °F - 73.4 °F 94% 29.96 in 10.0 mi ENE 9.2 mph - 0.05 in Rain Light Rain
8:53 PM 73.9 °F - 72.0 °F 93% 29.97 in 4.0 mi SE 9.2 mph - 0.14 in Rain Rain
9:06 PM 73.4 °F - 71.6 °F 94% 29.97 in 10.0 mi ESE 9.2 mph - 0.02 in Rain Light Rain
9:38 PM 73.4 °F - 71.6 °F 94% 29.97 in 10.0 mi East 10.4 mph - 0.02 in Rain Light Rain
9:53 PM 73.9 °F - 72.0 °F 93% 29.97 in 10.0 mi East 8.1 mph - 0.03 in Rain Light Rain
10:41 PM 73.4 °F - 71.6 °F 94% 29.97 in 10.0 mi East 11.5 mph - 0.03 in   Overcast
10:50 PM 73.4 °F - 71.6 °F 94% 29.96 in 10.0 mi East 10.4 mph - 0.03 in Rain Light Rain
10:53 PM 73.9 °F - 72.0 °F 93% 29.96 in 10.0 mi East 12.7 mph - 0.03 in Rain Light Rain
11:06 PM 73.4 °F - 71.6 °F 94% 29.96 in 2.0 mi ESE 8.1 mph - 0.16 in Rain Heavy Rain
11:14 PM 73.4 °F - 71.6 °F 94% 29.97 in 5.0 mi SSE 10.4 mph - 0.24 in Rain Light Rain
11:53 PM 75.0 °F - 73.0 °F 94% 29.98 in 10.0 mi SE 10.4 mph - 0.28 in Rain Light Rain